This demonstration page uses our WeatherBlox Daily Observations layout. Learn more.

Left ArrowRight Arrow

Hourly Observations for July 23, 2016

Temp ( °F °C ) Dew Point ( °F °C ) Humidity (%) Winds ( mph kmh ) Pressure ( in mb ) Visibility ( mi km ) Precip ( " mm )
12:59 am 00:59 Partly Cloudy 81 27.2 72 22.2 74 74 SSW 9 15 29.98 1015 9 14 0.00 0.00
1:59 am 01:59 Partly Cloudy 80 26.7 71 21.7 74 74 SW 9 15 29.98 1015 9 14 0.00 0.00
2:59 am 02:59 Partly Cloudy 79 26.1 71 21.7 77 77 SW 9 15 29.97 1015 9 14 0.00 0.00
3:59 am 03:59 Partly Cloudy 78 25.6 72 22.2 82 82 SW 8 13 29.96 1015 8 13 0.00 0.00
4:59 am 04:59 Partly Cloudy 77 25 72 22.2 85 85 SW 8 13 29.96 1015 8 13 0.00 0.00
5:59 am 05:59 Partly Cloudy 77 25 71 21.7 82 82 SW 7 11 29.96 1015 8 13 0.00 0.00
6:59 am 06:59 Mostly Sunny 77 25 72 22.2 85 85 SW 6 9 29.97 1015 7 11 0.00 0.00
7:59 am 07:59 Mostly Sunny 79 26.1 72 22.2 79 79 SW 8 13 29.97 1015 7 11 0.00 0.00
8:59 am 08:59 Sunny 81 27.2 72 22.2 74 74 W 7 11 29.98 1015 7 11 0.00 0.00
9:59 am 09:59 Sunny 85 29.4 73 22.8 68 68 W 6 9 29.98 1015 7 11 0.00 0.00
10:59 am 10:59 Sunny 88 31.1 74 23.3 63 63 W 6 9 29.99 1016 7 11 0.00 0.00
11:59 am 11:59 Sunny 92 33.3 74 23.3 56 56 NE 3 6 29.98 1015 8 13 0.00 0.00
12:59 pm 12:59 Mostly Sunny 94 34.4 74 23.3 52 52 NNW 8 13 29.98 1015 7 11 0.00 0.00
1:59 pm 13:59 Partly Cloudy 95 35 72 22.2 47 47 WSW 7 11 29.96 1015 9 14 0.00 0.00
2:59 pm 14:59 Partly Cloudy 94 34.4 72 22.2 49 49 SSW 9 15 29.94 1014 8 13 0.00 0.00
3:59 pm 15:59 Partly Cloudy 96 35.6 70 21.1 43 43 SSW 9 15 29.93 1014 9 14 0.00 0.00
4:59 pm 16:59 Partly Cloudy 95 35 71 21.7 46 46 SW 8 13 29.92 1013 9 14 0.00 0.00
5:59 pm 17:59 Partly Cloudy 94 34.4 71 21.7 48 48 SW 9 15 29.91 1013 9 14 0.00 0.00
6:59 pm 18:59 Partly Cloudy 93 33.9 71 21.7 49 49 WSW 9 15 29.92 1013 9 14 0.00 0.00
7:59 pm 19:59 Partly Cloudy 90 32.2 71 21.7 54 54 SW 7 11 29.93 1013 9 14 0.00 0.00
8:59 pm 20:59 Partly Cloudy 86 30 73 22.8 65 65 SW 6 9 29.94 1014 10 16 0.00 0.00
9:59 pm 21:59 Mostly Clear 87 30.6 74 23.3 65 65 SW 7 11 29.96 1015 9 14 0.00 0.00
10:59 pm 22:59 Mostly Clear 86 30 74 23.3 67 67 SW 8 13 29.96 1015 9 14 0.00 0.00
11:59 pm 23:59 Mostly Clear 85 29.4 75 23.9 72 72 SSW 8 13 29.97 1015 9 14 0.00 0.00

Powered by AerisWeather